When you browse on this site, cookies collect data to enhance your experience and personalize the content and advertising you see.
Visit our Privacy Policy to learn more. By continuing to use the site, you agree to this use of cookies and data.
  • In Lithuania
  • List of Countries
  • For 7 days
  • Water Temperature
  • Satellite Maps
  • Weather Map
  • Weather Widgets
  • user-avatar
    Login

    Hourly Weather La Massana

    Today, 24 May, Friday

    Time Temperature Precipitation Wind Pressure Humidity
    00:00 +6°C° 0 mm 0 mps 610 mmHg 91%
    01:00 +6°C° 1.3 mm 0 mps 610 mmHg 93%
    02:00 +6°C° 1.3 mm 0 mps 609 mmHg 94%
    03:00 +6°C° 1.3 mm 0 mps 609 mmHg 95%
    04:00 +6°C° 2.7 mm 0 mps 609 mmHg 95%
    05:00 +7°C° 2.7 mm 1 mps 609 mmHg 95%
    06:00 +6°C° 2.7 mm 1 mps 609 mmHg 95%
    07:00 +6°C° 1.4 mm 1 mps 609 mmHg 95%
    08:00 +6°C° 1.4 mm 1 mps 609 mmHg 94%
    09:00 +6°C° 1.4 mm 1 mps 609 mmHg 93%
    10:00 +6°C° 0.6 mm 1 mps 609 mmHg 91%
    11:00 +7°C° 0.6 mm 1 mps 609 mmHg 89%
    12:00 +7°C° 0.6 mm 1 mps 609 mmHg 87%
    13:00 +7°C° 0.3 mm 1 mps 609 mmHg 86%
    14:00 +7°C° 0.3 mm 2 mps 609 mmHg 84%
    15:00 +7°C° 0.3 mm 2 mps 609 mmHg 82%
    16:00 +7°C° 0.4 mm 2 mps 609 mmHg 85%
    17:00 +6°C° 0.4 mm 2 mps 609 mmHg 88%
    18:00 +5°C° 0.4 mm 2 mps 608 mmHg 91%
    19:00 +5°C° 1.1 mm 2 mps 608 mmHg 93%
    20:00 +5°C° 1.1 mm 2 mps 609 mmHg 94%
    21:00 +5°C° 1.1 mm 2 mps 609 mmHg 95%
    22:00 +5°C° 1.5 mm 2 mps 609 mmHg 96%
    23:00 +4°C° 1.5 mm 2 mps 609 mmHg 96%

    Tomorrow, 25 May, Saturday

    Time Temperature Precipitation Wind Pressure Humidity
    00:00 +4°C° 1.5 mm 2 mps 609 mmHg 96%
    01:00 +4°C° 1.4 mm 2 mps 609 mmHg 96%
    02:00 +4°C° 1.4 mm 2 mps 608 mmHg 96%
    03:00 +4°C° 1.4 mm 2 mps 608 mmHg 96%
    04:00 +4°C° 2 mm 2 mps 608 mmHg 96%
    05:00 +3°C° 2 mm 3 mps 608 mmHg 96%
    06:00 +3°C° 2 mm 3 mps 608 mmHg 96%
    07:00 +3°C° 1.5 mm 3 mps 609 mmHg 95%
    08:00 +4°C° 1.5 mm 3 mps 609 mmHg 94%
    09:00 +4°C° 1.5 mm 3 mps 609 mmHg 93%
    10:00 +4°C° 0.8 mm 3 mps 609 mmHg 91%
    11:00 +4°C° 0.8 mm 3 mps 609 mmHg 89%
    12:00 +5°C° 0.8 mm 3 mps 609 mmHg 87%
    13:00 +7°C° 0.1 mm 3 mps 610 mmHg 82%
    14:00 +8°C° 0.1 mm 3 mps 610 mmHg 78%
    15:00 +8°C° 0.1 mm 3 mps 610 mmHg 74%
    16:00 +8°C° 0.1 mm 3 mps 610 mmHg 76%
    17:00 +7°C° 0.1 mm 3 mps 610 mmHg 78%
    18:00 +5°C° 0.1 mm 3 mps 610 mmHg 81%
    19:00 +5°C° 0 mm 3 mps 610 mmHg 84%
    20:00 +4°C° 0 mm 3 mps 610 mmHg 87%
    21:00 +3°C° 0 mm 3 mps 610 mmHg 90%
    22:00 +3°C° 0.1 mm 3 mps 610 mmHg 90%
    23:00 +3°C° 0.1 mm 3 mps 610 mmHg 91%

    Day after tomorrow, 26 May, Sunday

    Time Temperature Precipitation Wind Pressure Humidity
    00:00 +3°C° 0.1 mm 3 mps 610 mmHg 92%
    01:00 +3°C° 0 mm 3 mps 610 mmHg 92%
    02:00 +3°C° 0 mm 3 mps 609 mmHg 91%
    03:00 +2°C° 0 mm 3 mps 609 mmHg 91%
    04:00 +3°C° 0 mm 3 mps 609 mmHg 89%
    05:00 +3°C° 0 mm 3 mps 610 mmHg 87%
    06:00 +4°C° 0 mm 3 mps 610 mmHg 85%
    07:00 +5°C° 0.1 mm 3 mps 610 mmHg 81%
    08:00 +7°C° 0.1 mm 3 mps 611 mmHg 78%
    09:00 +7°C° 0.1 mm 3 mps 611 mmHg 74%
    10:00 +7°C° 0.2 mm 3 mps 611 mmHg 74%
    11:00 +8°C° 0.2 mm 3 mps 611 mmHg 73%
    12:00 +8°C° 0.2 mm 3 mps 611 mmHg 73%
    13:00 +7°C° 0 mm 4 mps 611 mmHg 69%
    14:00 +8°C° 0 mm 4 mps 611 mmHg 65%
    15:00 +10°C° 0 mm 4 mps 611 mmHg 61%
    16:00 +9°C° 0 mm 3 mps 611 mmHg 63%
    17:00 +9°C° 0 mm 3 mps 610 mmHg 65%
    18:00 +8°C° 0 mm 3 mps 610 mmHg 67%
    19:00 +7°C° 0 mm 3 mps 610 mmHg 75%
    20:00 +5°C° 0 mm 2 mps 609 mmHg 83%
    21:00 +4°C° 0 mm 2 mps 609 mmHg 90%
    22:00 +4°C° 0 mm 2 mps 609 mmHg 90%
    23:00 +4°C° 0 mm 2 mps 609 mmHg 90%

    27 May, Monday

    Time Temperature Precipitation Wind Pressure Humidity
    00:00 +5°C° 0 mm 2 mps 609 mmHg 90%
    01:00 +5°C° 0 mm 2 mps 609 mmHg 91%
    02:00 +5°C° 0 mm 2 mps 609 mmHg 92%
    03:00 +5°C° 0 mm 2 mps 609 mmHg 93%
    04:00 +5°C° 0 mm 2 mps 609 mmHg 90%
    05:00 +5°C° 0 mm 2 mps 609 mmHg 88%
    06:00 +6°C° 0 mm 2 mps 609 mmHg 86%
    07:00 +8°C° 0 mm 2 mps 610 mmHg 77%
    08:00 +9°C° 0 mm 2 mps 611 mmHg 67%
    09:00 +12°C° 0 mm 2 mps 612 mmHg 58%
    10:00 +14°C° 0 mm 2 mps 612 mmHg 55%
    11:00 +15°C° 0 mm 2 mps 612 mmHg 51%
    12:00 +16°C° 0 mm 2 mps 612 mmHg 47%
    13:00 +15°C° 0 mm 2 mps 612 mmHg 51%
    14:00 +15°C° 0 mm 2 mps 611 mmHg 54%
    15:00 +15°C° 0 mm 2 mps 611 mmHg 58%
    16:00 +13°C° 0.1 mm 2 mps 610 mmHg 67%
    17:00 +12°C° 0.1 mm 2 mps 609 mmHg 76%
    18:00 +9°C° 0.1 mm 2 mps 609 mmHg 85%
    19:00 +8°C° 0 mm 2 mps 609 mmHg 87%
    20:00 +7°C° 0 mm 2 mps 608 mmHg 90%
    21:00 +6°C° 0 mm 2 mps 608 mmHg 92%
    22:00 +5°C° 0 mm 2 mps 608 mmHg 92%
    23:00 +6°C° 0 mm 1 mps 607 mmHg 91%

    28 May, Tuesday

    Time Temperature Precipitation Wind Pressure Humidity
    00:00 +5°C° 0 mm 1 mps 607 mmHg 91%
    01:00 +5°C° 0 mm 1 mps 607 mmHg 89%
    02:00 +5°C° 0 mm 1 mps 607 mmHg 88%
    03:00 +4°C° 0 mm 2 mps 606 mmHg 86%
    04:00 +5°C° 0 mm 2 mps 607 mmHg 86%
    05:00 +5°C° 0 mm 2 mps 607 mmHg 87%
    06:00 +6°C° 0 mm 2 mps 607 mmHg 87%
    07:00 +6°C° 0.1 mm 2 mps 607 mmHg 84%
    08:00 +7°C° 0.1 mm 2 mps 608 mmHg 81%
    09:00 +8°C° 0.1 mm 1 mps 608 mmHg 78%
    10:00 +8°C° 0.1 mm 1 mps 608 mmHg 80%
    11:00 +7°C° 0.1 mm 2 mps 607 mmHg 81%
    12:00 +7°C° 0.1 mm 2 mps 607 mmHg 83%
    13:00 +6°C° 0.9 mm 2 mps 607 mmHg 86%
    14:00 +6°C° 0.9 mm 2 mps 606 mmHg 89%
    15:00 +5°C° 0.9 mm 2 mps 606 mmHg 92%
    16:00 +4°C° 1 mm 3 mps 606 mmHg 92%
    17:00 +3°C° 1 mm 3 mps 606 mmHg 92%
    18:00 +3°C° 1 mm 3 mps 606 mmHg 92%
    19:00 +1°C° 0.4 mm 3 mps 606 mmHg 91%
    20:00 0°C° 0.4 mm 3 mps 606 mmHg 90%
    21:00 -1°C° 0.4 mm 3 mps 606 mmHg 88%
    22:00 -2°C° 0 mm 3 mps 606 mmHg 89%
    23:00 -2°C° 0 mm 3 mps 606 mmHg 90%

    29 May, Wednesday

    Time Temperature Precipitation Wind Pressure Humidity
    00:00 -4°C° 0 mm 3 mps 605 mmHg 90%
    01:00 -4°C° 0 mm 3 mps 606 mmHg 91%
    02:00 -3°C° 0 mm 2 mps 606 mmHg 91%
    03:00 -3°C° 0 mm 2 mps 606 mmHg 91%
    04:00 -2°C° 0 mm 2 mps 607 mmHg 88%
    05:00 -1°C° 0 mm 2 mps 607 mmHg 85%
    06:00 -1°C° 0 mm 2 mps 608 mmHg 82%
    07:00 +1°C° 0 mm 3 mps 609 mmHg 72%
    08:00 +3°C° 0 mm 3 mps 610 mmHg 63%
    09:00 +5°C° 0 mm 3 mps 611 mmHg 53%
    10:00 +7°C° 0 mm 3 mps 612 mmHg 49%
    11:00 +8°C° 0 mm 3 mps 612 mmHg 44%
    12:00 +10°C° 0 mm 3 mps 612 mmHg 40%
    13:00 +10°C° 0 mm 3 mps 613 mmHg 41%
    14:00 +10°C° 0 mm 3 mps 613 mmHg 41%
    15:00 +10°C° 0 mm 3 mps 613 mmHg 41%
    16:00 +9°C° 0 mm 3 mps 612 mmHg 48%
    17:00 +8°C° 0 mm 3 mps 612 mmHg 54%
    18:00 +7°C° 0 mm 3 mps 612 mmHg 60%
    19:00 +5°C° 0 mm 2 mps 612 mmHg 70%
    20:00 +2°C° 0 mm 2 mps 611 mmHg 80%
    21:00 -1°C° 0 mm 2 mps 611 mmHg 89%
    22:00 -1°C° 0 mm 2 mps 611 mmHg 89%
    23:00 -1°C° 0 mm 2 mps 611 mmHg 88%
    Show more